[[{"header":{"parameterUnit":"m.s-1","parameterCategory":1,"la1":30.2991,"la2":30.254,"lo1":-89.0895,"lo2":-89.0444,"dy":0.0017,"dx":0.0017,"nx":28,"ny":28,"refTime":"2024-04-27T09:00:00:Z","depth":0,"parameterNumber":2,"parameterNumberName":"U-component_of_WINDS"},"data":[0,0,0,0,0,0,0,0,0,0,0,0,0,0,0,0,0,0,0,0,0,0,0,0,0,0,0,0,0,0,0,0,0,0,0,0,0,0,0,0,0,0,0,0,0,0,0,0,0,0,0,0,0,0,0,0,0,0,-7.1736,-7.1738,0,-7.1904,-7.1906,-7.1908,-7.1923,-7.1921,-7.192,-7.1918,-7.2086,-7.2092,-7.2098,0,0,0,0,0,0,0,0,0,0,0,0,0,-7.1428,-7.1433,-7.1736,-7.1738,-7.1741,-7.1904,-7.1906,-7.1908,-7.1923,-7.1921,-7.1919,-7.1917,-7.2084,-7.2092,-7.2099,0,0,0,0,0,0,0,0,0,0,0,0,0,-7.1575,-7.1435,-7.1736,-7.1768,-7.1772,-7.1903,-7.1906,-7.1909,-7.1924,-7.1921,-7.1919,-7.1916,-7.2082,-7.2091,-7.21,-7.221,0,0,-7.2128,-7.2132,0,0,0,0,0,0,0,0,-7.1567,-7.1586,-7.1761,-7.1766,-7.1771,-7.189,-7.1859,-7.201,-7.1925,-7.1866,-7.1918,-7.1915,-7.2023,-7.2037,-7.2074,-7.2218,-7.2225,-7.2129,-7.2135,-7.2139,-7.2141,0,0,0,0,0,0,0,-7.1556,-7.1579,-7.1803,-7.1763,-7.177,-7.1773,-7.1791,-7.1888,-7.1957,-7.1871,-7.1873,-7.1892,-7.2025,-7.2065,-7.2078,-7.2227,-7.2129,-7.2137,-7.2143,-7.2146,-7.247,-7.2473,0,0,0,0,0,0,-7.154,-7.1571,-7.1797,-7.1808,-7.166,-7.1781,-7.1801,-7.1854,-7.1956,-7.1969,-7.1895,-7.1893,-7.2051,-7.2067,-7.2084,-7.2219,-7.2138,-7.2147,-7.2152,-7.2467,-7.2471,-7.2474,0,0,0,0,0,0,-7.1534,-7.1561,-7.179,-7.169,-7.1719,-7.1789,-7.1849,-7.1859,-7.1899,-7.1974,-7.1986,-7.1923,-7.2049,-7.2071,-7.2179,-7.2225,-7.2151,-7.216,-7.2464,-7.2469,-7.2473,-7.2489,0,0,0,0,0,0,-7.1525,-7.1558,-7.16,-7.1691,-7.1725,-7.1883,-7.1852,-7.1864,-7.1915,-7.1914,-7.2004,-7.2016,-7.2049,-7.2165,-7.2188,-7.2236,-7.2167,-7.246,-7.2466,-7.2471,-7.2485,-7.2494,-7.2502,0,0,0,0,0,-7.1514,-7.1598,-7.1603,-7.163,-7.1779,-7.1885,-7.1905,-7.1942,-7.1919,-7.1962,-7.2011,-7.2013,-7.2217,-7.2176,-7.2202,-7.2253,-7.2457,-7.2464,-7.2471,-7.2481,-7.2492,-7.2501,0,0,0,0,0,0,-7.1509,-7.161,-7.1616,-7.1732,-7.18,-7.1888,-7.1943,-7.1952,-7.2027,-7.2023,-7.2066,-7.2086,-7.2191,-7.2234,-7.2186,-7.2366,-7.2335,-7.2347,-7.2333,-7.2345,-7.2353,-7.2339,-7.2174,0,0,0,0,0,-7.1522,-7.1601,-7.1684,-7.1778,-7.1812,-7.1872,-7.1919,-7.1943,-7.2014,-7.2043,-7.2099,-7.2168,-7.2248,-7.2299,-7.2377,-7.2493,-7.2512,-7.2541,-7.255,-7.2556,-7.2565,-7.2629,-7.2643,-7.2497,-7.2497,-7.2497,0,0,-7.1548,-7.1613,-7.166,-7.1779,-7.1834,-7.1914,-7.1896,-7.198,-7.204,-7.2055,-7.216,-7.2205,-7.2284,-7.2397,-7.2449,-7.2435,-7.2611,-7.2565,-7.257,-7.2575,-7.2638,-7.2652,-7.2664,-7.2502,-7.2501,-7.25,0,0,-7.1636,-7.1694,-7.1779,-7.1836,-7.1921,-7.196,-7.1981,-7.2068,-7.2098,-7.2205,-7.2219,-7.229,-7.2427,-7.2483,-7.2529,-7.2643,-7.2647,-7.2667,-7.2709,-7.2772,-7.2783,-7.2793,-7.2832,-7.2846,-7.2677,-7.2677,-7.2677,0,-7.1658,-7.1779,-7.1821,-7.1906,-7.1957,-7.1978,-7.2064,-7.2117,-7.2222,-7.2257,-7.2241,-7.2414,-7.2469,-7.2595,-7.2623,-7.2661,-7.2684,-7.2655,-7.2778,-7.2789,-7.2799,-7.2837,-7.2852,-7.2679,-7.2678,-7.2678,-7.2678,0,-7.18,-7.1885,-7.1943,-7.2046,-7.2105,-7.2189,-7.2243,-7.2298,-7.2318,-7.2359,-7.2468,-7.2536,-7.2627,-7.266,-7.2679,-7.2789,-7.2777,-7.277,-7.2738,-7.2814,-7.285,-7.2865,-7.2681,-7.268,-7.268,-7.2679,0,0,-7.1886,-7.2014,-7.2034,-7.2081,-7.2178,-7.2244,-7.233,-7.2422,-7.2467,-7.2541,-7.2613,-7.273,-7.2724,-7.2777,-7.2803,-7.2858,-7.2943,-7.2844,-7.2847,-7.2858,-7.3067,-7.3069,-7.3085,-7.2948,-7.2951,-7.2954,-7.3059,0,-7.1984,-7.2138,-7.2179,-7.231,-7.2388,-7.2411,-7.2486,-7.2554,-7.2596,-7.2668,-7.2714,-7.2795,-7.2782,-7.2814,-7.287,-7.292,-7.2984,-7.2914,-7.3014,-7.3017,-7.299,-7.3104,-7.3108,-7.3204,-7.3074,-7.3076,-7.3078,0,-7.2117,-7.2194,-7.2333,-7.2421,-7.2455,-7.2522,-7.261,-7.2679,-7.2756,-7.2783,-7.2844,-7.2866,-7.2957,-7.2924,-7.3049,-7.3,-7.3045,-7.3076,-7.3081,-7.3088,-7.3049,-7.3113,-7.3235,-7.3249,-7.3101,-7.3099,-7.3097,0,-7.2163,-7.2302,-7.2403,-7.2443,-7.2549,-7.2596,-7.2642,-7.2717,-7.277,-7.2847,-7.2881,-7.2968,-7.3014,-7.308,-7.3125,-7.3097,-7.3246,-7.3217,-7.327,-7.3268,-7.3296,-7.3293,-7.3425,-7.333,-7.333,-7.333,-7.3329,0,-7.2265,-7.2348,-7.2425,-7.2487,-7.2582,-7.2629,-7.2721,-7.2769,-7.2836,-7.2907,-7.2933,-7.2999,-7.3055,-7.3129,-7.3165,-7.3263,-7.3284,-7.3307,-7.3315,-7.3303,-7.33,-7.333,-7.3323,-7.3334,-7.3333,-7.3332,-7.3331,0,-7.2331,-7.2386,-7.2497,-7.259,-7.2615,-7.268,-7.2759,-7.282,-7.2864,-7.2954,-7.2978,-7.3047,-7.3136,-7.3188,-7.3299,-7.3324,-7.3431,-7.3438,-7.3405,-7.3408,-7.3456,-7.345,-7.3609,-7.3632,-7.3524,-7.3525,-7.3526,0,-7.2391,-7.2456,-7.2556,-7.2606,-7.2653,-7.2733,-7.2788,-7.2839,-7.2894,-7.2989,-7.3038,-7.3129,-7.3203,-7.3344,-7.3403,-7.3489,-7.3496,-7.3546,-7.3509,-7.3495,-7.3494,-7.3489,-7.3495,-7.3551,-7.3552,-7.3553,-7.3553,0,-7.2491,-7.2516,-7.2594,-7.2682,-7.2747,-7.2818,-7.2889,-7.2929,-7.2991,-7.3053,-7.3144,-7.3202,-7.3318,-7.3406,-7.3498,-7.3545,-7.3559,-7.3566,-7.3582,-7.3568,-7.3546,-7.3557,-7.3419,-7.3561,-7.356,-7.3559,-7.3559,-7.3559,-7.2554,-7.2613,-7.2693,-7.2779,-7.2839,-7.2905,-7.2967,-7.3021,-7.3098,-7.3196,-7.3222,-7.3317,-7.3395,-7.3519,-7.3569,-7.3644,-7.3636,-7.366,-7.3665,-7.367,-7.367,-7.3537,-7.3662,-7.3662,-7.3661,-7.3661,-7.3661,0,-7.2654,-7.2707,-7.2787,-7.2886,-7.2954,-7.2965,-7.3045,-7.31,-7.3185,-7.3256,-7.333,-7.3436,-7.3523,-7.3591,-7.3681,-7.3728,-7.3737,-7.375,-7.3745,-7.3755,-7.3673,-7.3649,-7.3741,-7.3741,-7.3741,-7.3741,-7.3741,-7.3741,-7.2714,-7.2814,-7.2848,-7.2978,-7.3031,-7.3126,-7.317,-7.3232,-7.3289,-7.3406,-7.3479,-7.3524,-7.3595,-7.369,-7.3771,-7.3789,-7.3819,-7.383,-7.3849,-7.377,-7.3761,-7.3753,-7.373,-7.3837,-7.3837,-7.3924,-7.3925,-7.3926]},{"header":{"parameterUnit":"m.s-1","parameterCategory":1,"la1":30.2991,"la2":30.254,"lo1":-89.0895,"lo2":-89.0444,"dy":0.0017,"dx":0.0017,"nx":28,"ny":28,"refTime":"2024-04-27T09:00:00:Z","depth":0,"parameterNumber":3,"parameterNumberName":"V-component_of_WINDS"},"data":[0,0,0,0,0,0,0,0,0,0,0,0,0,0,0,0,0,0,0,0,0,0,0,0,0,0,0,0,0,0,0,0,0,0,0,0,0,0,0,0,0,0,0,0,0,0,0,0,0,0,0,0,0,0,0,0,0,0,5.7387,5.7387,0,5.7403,5.7403,5.7404,5.7399,5.7399,5.7399,5.7398,5.7411,5.7412,5.7412,0,0,0,0,0,0,0,0,0,0,0,0,0,5.7351,5.7352,5.7387,5.7387,5.7388,5.7403,5.7403,5.7404,5.7399,5.7399,5.7399,5.7398,5.7411,5.7411,5.7412,0,0,0,0,0,0,0,0,0,0,0,0,0,5.7367,5.7352,5.7387,5.7388,5.7388,5.7403,5.7404,5.7404,5.7399,5.7399,5.7399,5.7398,5.741,5.7411,5.7412,5.7427,0,0,5.7415,5.7416,0,0,0,0,0,0,0,0,5.7366,5.7368,5.7387,5.7388,5.7388,5.7399,5.7395,5.7412,5.74,5.7395,5.7398,5.7398,5.7407,5.7408,5.7412,5.7428,5.7428,5.7415,5.7416,5.7416,5.7416,0,0,0,0,0,0,0,5.7365,5.7367,5.7393,5.7388,5.7388,5.7386,5.7388,5.7398,5.7403,5.7395,5.7395,5.7397,5.7407,5.7411,5.7412,5.7429,5.7415,5.7416,5.7417,5.7417,5.746,5.7461,0,0,0,0,0,0,5.7364,5.7367,5.7393,5.7394,5.7376,5.7387,5.7389,5.7396,5.7403,5.7404,5.7398,5.7397,5.741,5.7411,5.7413,5.7432,5.7416,5.7417,5.7418,5.7459,5.746,5.7461,0,0,0,0,0,0,5.7363,5.7366,5.7392,5.738,5.7384,5.7388,5.7396,5.7396,5.74,5.7405,5.7405,5.7401,5.741,5.7411,5.7425,5.7433,5.7417,5.7418,5.7459,5.746,5.7461,5.7471,0,0,0,0,0,0,5.7362,5.7366,5.7372,5.7381,5.7384,5.7404,5.7396,5.7397,5.7403,5.7402,5.7408,5.7409,5.7409,5.7423,5.7426,5.7434,5.7419,5.7458,5.7459,5.746,5.747,5.7472,5.7474,0,0,0,0,0,5.7361,5.7373,5.7372,5.7376,5.7392,5.7405,5.7407,5.7408,5.7403,5.7409,5.7413,5.7409,5.7432,5.7425,5.7427,5.7436,5.7458,5.7459,5.746,5.7469,5.7472,5.7474,0,0,0,0,0,0,5.7363,5.7374,5.7373,5.7389,5.7396,5.7404,5.7411,5.7411,5.7418,5.7417,5.7417,5.7419,5.7433,5.7435,5.7427,5.7452,5.7444,5.7446,5.745,5.7452,5.7454,5.7453,5.742,0,0,0,0,0,5.7366,5.7376,5.7385,5.7397,5.7401,5.7406,5.7412,5.7413,5.742,5.7422,5.7426,5.7432,5.7441,5.7447,5.7455,5.7471,5.7472,5.7478,5.748,5.7482,5.7483,5.7493,5.7496,5.7465,5.7465,5.7465,0,0,5.737,5.7378,5.7384,5.7398,5.7404,5.7415,5.7408,5.7419,5.7427,5.7423,5.7437,5.744,5.7447,5.7462,5.7469,5.7465,5.7492,5.7483,5.7484,5.7485,5.7495,5.7498,5.75,5.7466,5.7466,5.7466,0,0,5.7385,5.7391,5.7403,5.741,5.742,5.7424,5.7427,5.7436,5.7439,5.7452,5.7451,5.746,5.7474,5.748,5.7485,5.7505,5.7502,5.7508,5.7518,5.7528,5.753,5.7532,5.754,5.7543,5.7509,5.7509,5.7509,0,5.7389,5.7406,5.7409,5.7422,5.7428,5.7428,5.7441,5.7446,5.7458,5.7462,5.7458,5.7479,5.7483,5.75,5.7506,5.7509,5.7513,5.7506,5.753,5.7532,5.7534,5.7542,5.7545,5.751,5.751,5.751,5.751,0,5.7411,5.7423,5.7432,5.7446,5.7453,5.7465,5.7471,5.7478,5.7479,5.7483,5.7498,5.7504,5.7514,5.7519,5.7518,5.7536,5.7534,5.753,5.7521,5.7538,5.7545,5.7548,5.7511,5.751,5.751,5.751,0,0,5.7425,5.7443,5.7446,5.7454,5.7466,5.7475,5.7488,5.75,5.7507,5.7515,5.7526,5.754,5.7537,5.7543,5.7544,5.7552,5.757,5.7547,5.7548,5.7552,5.7591,5.7594,5.7598,5.7568,5.7569,5.7569,5.7591,0,5.7441,5.7465,5.747,5.749,5.7502,5.7503,5.7515,5.7523,5.7528,5.7538,5.7543,5.7554,5.7548,5.7552,5.7561,5.7566,5.7577,5.7564,5.7578,5.7579,5.7576,5.7601,5.7604,5.7624,5.7594,5.7594,5.7594,0,5.7462,5.7474,5.7496,5.751,5.7515,5.7525,5.7538,5.7548,5.7558,5.7561,5.7569,5.757,5.7583,5.7575,5.7594,5.7585,5.7591,5.7595,5.7595,5.7596,5.7587,5.7603,5.763,5.7633,5.7599,5.7598,5.7598,0,5.7471,5.7492,5.7509,5.7515,5.7531,5.7539,5.7545,5.7555,5.7563,5.7574,5.7579,5.7591,5.7597,5.7606,5.761,5.7604,5.7629,5.7621,5.7632,5.7632,5.7636,5.7636,5.7665,5.764,5.764,5.764,5.764,0,5.7488,5.7502,5.7514,5.7524,5.754,5.7546,5.7562,5.7568,5.7578,5.7589,5.759,5.7601,5.7605,5.7617,5.762,5.7635,5.7638,5.7641,5.7641,5.7641,5.764,5.7644,5.7643,5.7641,5.7641,5.7641,5.7641,0,5.75,5.7509,5.7528,5.7542,5.7547,5.7558,5.757,5.758,5.7586,5.76,5.7604,5.7613,5.7626,5.7632,5.7647,5.765,5.7668,5.7667,5.7665,5.7665,5.7676,5.7675,5.7709,5.7714,5.7685,5.7686,5.7686,0,5.7511,5.7522,5.7539,5.7548,5.7556,5.7569,5.7578,5.7585,5.7594,5.7609,5.7617,5.7631,5.7643,5.7664,5.7672,5.7684,5.7684,5.7695,5.7686,5.7685,5.7685,5.7684,5.7686,5.7696,5.7697,5.7697,5.7697,0,5.7529,5.7533,5.7547,5.7563,5.7574,5.7586,5.7598,5.7605,5.7614,5.7624,5.7639,5.7649,5.7667,5.7681,5.7695,5.77,5.77,5.77,5.7704,5.7703,5.7702,5.7703,5.767,5.7699,5.7699,5.7699,5.7699,5.7699,5.7541,5.7552,5.7566,5.7582,5.7592,5.7604,5.7615,5.7624,5.7637,5.7654,5.7657,5.7673,5.7685,5.7704,5.7711,5.7724,5.7721,5.7725,5.7726,5.7727,5.7729,5.77,5.7726,5.7726,5.7726,5.7726,5.7726,0,5.7559,5.757,5.7584,5.7602,5.7615,5.7616,5.763,5.7641,5.7656,5.7668,5.768,5.7699,5.7713,5.7723,5.7737,5.7746,5.7746,5.7749,5.7749,5.775,5.773,5.7726,5.7749,5.7749,5.7749,5.7749,5.7749,5.7749,5.757,5.759,5.7596,5.7621,5.7631,5.7649,5.7657,5.7668,5.7678,5.7699,5.7712,5.7719,5.773,5.7746,5.776,5.7762,5.7768,5.7771,5.7774,5.7754,5.7752,5.7749,5.7746,5.7772,5.7772,5.7793,5.7793,5.7793]}]]